Flag for Germany Weather past 2 weeks in Herten, North Rhine-Westphalia, Germany

Now
35 °F

Drizzle. Low clouds.


Feels Like: 35 °F
Forecast: 32 / 38 °F
Wind: 1 mph from South

Location: Essen

Current Time: Feb 1, 2015 at 3:17:16 PM

Latest Report: Feb 1, 2015 at 3:00 PM


Visibility: 3 mi

Pressure: 29.26 "Hg

Humidity: 99%

Dew point: 35 °F

Location of HertenLocation

Historic Weather in Herten — Graph

°F

Herten temperature yesterday

Maximum temperature yesterday: 38 °F (at 2:00 PM)
Minimum temperature yesterday: 32 °F (at 12:00 AM)
Average temperature yesterday: 34 °F

Past Weeks' High & Low Weather Summary

 TemperatureHumidityPressure
High42 °F (Jan 26, 7:00 PM)100% (Jan 24, 11:00 AM)30.42 "Hg (Jan 24, 11:00 AM)
Low29 °F (Jan 21, 8:00 AM)61% (Jan 21, 3:00 PM)28.67 "Hg (Jan 30, 2:00 AM)
Average34 °F89%29.80 "Hg
* Reported Jan 17 2:00 PM — Feb 1 2:00 PM, Herten, Weather by CustomWeather, © 2014

Note: Actual official high and low records may vary slightly from our data, if they occured in-between our weather recording intervals... More about our weather records

Advertising

Herten weather history for previous 24 hours

 ConditionsComfort  
Time TempWeatherWind HumidityBarometerVisibility
2:00 PM
Feb 1
35 °FLow clouds.3 mph99%29.23 "Hg3 mi
1:00 PM34 °FLight freezing rain. Low clouds.3 mph100%29.23 "Hg2 mi
12:00 PM33 °FLight snow. Low clouds.3 mph100%29.23 "Hg2 mi
11:00 AM33 °FLight snow. Low clouds.3 mph99%29.21 "Hg1 mi
10:00 AM33 °FDrizzle. Low clouds.5 mph94%29.18 "Hg3 mi
9:00 AM33 °FFog.3 mph98%29.18 "Hg2 mi
8:00 AM33 °FFog.5 mph98%29.15 "Hg2 mi
7:00 AM33 °FLow clouds.5 mph97%29.15 "Hg2 mi
6:00 AM33 °FFog.3 mph95%29.15 "Hg3 mi
5:00 AM33 °FFog.2 mph97%29.15 "Hg2 mi
4:00 AM33 °FFog.3 mph96%29.12 "Hg3 mi
3:00 AM33 °FLow clouds.2 mph95%29.12 "Hg4 mi
2:00 AM33 °FOvercast.2 mph93%29.12 "Hg5 mi
1:00 AM32 °FOvercast.2 mph93%29.12 "Hg6 mi
12:00 AM33 °FOvercast.3 mph91%29.12 "Hg6 mi
11:00 PM
Jan 31
32 °FPassing clouds.2 mph91%29.12 "Hg6 mi
10:00 PM33 °FOvercast.3 mph89%29.12 "Hg7 mi
9:00 PM32 °FPassing clouds.2 mph89%29.09 "Hg8 mi
8:00 PM33 °FClear.3 mph87%29.09 "Hg9 mi
7:00 PM34 °FClear.3 mph88%29.06 "Hg7 mi
6:00 PM35 °FPassing clouds.3 mph84%29.06 "Hg9 mi
5:00 PM37 °FSunny.3 mph77%29.03 "Hg14 mi
4:00 PM38 °FPartly sunny.3 mph75%29.00 "Hg13 mi
3:00 PM38 °FLow clouds.3 mph76%29.00 "Hg16 mi
Weather by CustomWeather, © 2014

See weather overviewHow to use our weather pages